This demonstration page uses our WeatherBlox Daily Observations layout. Learn more.

Left ArrowRight Arrow

Hourly Observations for June 28, 2022

Temp ( °F °C ) Dew Point ( °F °C ) Humidity (%) Winds ( mph kmh ) Pressure ( in mb ) Visibility ( mi km ) Precip ( " mm )
12:53 am 00:53 Clear 63 17.2 48 8.9 58 58 SSW 12 19 30.21 1023 10 16 0.00 0.00
1:53 am 01:53 Clear 60 15.6 49 9.4 67 67 SW 6 9 30.22 1023 10 16 0.00 0.00
2:53 am 02:53 Clear 58 14.4 49 9.4 72 72 SW 6 9 30.22 1023 10 16 0.00 0.00
3:53 am 03:53 Clear 56 13.3 49 9.4 77 77 SSW 6 9 30.22 1023 10 16 0.00 0.00
8:53 am 08:53 Sunny 66 18.9 52 11.1 61 61 SW 9 15 30.20 1023 10 16 0.00 0.00
9:53 am 09:53 Sunny 71 21.7 50 10 47 47 SW 17 28 30.18 1022 10 16 0.00 0.00
10:53 am 10:53 Sunny 76 24.4 48 8.9 37 37 SW 12 19 30.15 1021 10 16 0.00 0.00
11:53 am 11:53 Sunny 79 26.1 49 9.4 35 35 SSW 16 26 30.15 1021 10 16 0.00 0.00
12:53 pm 12:53 Sunny 82 27.8 52 11.1 35 35 SW 12 19 30.14 1021 10 16 0.00 0.00
1:53 pm 13:53 Sunny 84 28.9 54 12.2 36 36 SW 10 17 30.13 1020 10 16 0.00 0.00
2:53 pm 14:53 Sunny 87 30.6 54 12.2 32 32 SSW 10 17 30.10 1019 10 16 0.00 0.00
3:53 pm 15:53 Sunny 88 31.1 54 12.2 31 31 SW 10 17 30.09 1019 10 16 0.00 0.00
4:53 pm 16:53 Sunny 89 31.7 54 12.2 30 30 SW 9 15 30.07 1018 10 16 0.00 0.00
5:53 pm 17:53 Sunny 90 32.2 53 11.7 28 28 SSW 10 17 30.06 1018 10 16 0.00 0.00
6:53 pm 18:53 Sunny 89 31.7 52 11.1 28 28 S 9 15 30.05 1018 10 16 0.00 0.00
7:53 pm 19:53 Sunny 87 30.6 55 12.8 34 34 S 8 13 30.04 1017 10 16 0.00 0.00
8:53 pm 20:53 Sunny 82 27.8 56 13.3 41 41 S 6 9 30.04 1017 10 16 0.00 0.00
9:53 pm 21:53 Clear 78 25.6 56 13.3 47 47 S 8 13 30.04 1017 10 16 0.00 0.00
10:53 pm 22:53 Clear 75 23.9 57 13.9 54 54 S 6 9 30.06 1018 10 16 0.00 0.00
11:53 pm 23:53 Clear 73 22.8 56 13.3 55 55 S 7 11 30.07 1018 10 16 0.00 0.00

Powered by AerisWeather